• In Romania
  • List of Countries
  • For 7 days
  • Water Temperature
  • Satellite Maps
  • Weather Map
  • Weather Widgets
  • user-avatar
    Login

    Hourly Weather Nesebyr

    Today, 16 December, Saturday

    Time Temperature Precipitation Wind Pressure Humidity
    00:00 +11°C° 0 mm 8 mps 755 mmHg 85%
    01:00 +11°C° 0 mm 8 mps 755 mmHg 86%
    02:00 +11°C° 0 mm 8 mps 754 mmHg 89%
    03:00 +11°C° 0 mm 8 mps 754 mmHg 88%
    04:00 +12°C° 0 mm 8 mps 754 mmHg 87%
    05:00 +12°C° 0 mm 9 mps 754 mmHg 86%
    06:00 +12°C° 0 mm 9 mps 754 mmHg 84%
    07:00 +12°C° 0 mm 9 mps 754 mmHg 83%
    08:00 +12°C° 0 mm 9 mps 754 mmHg 82%
    09:00 +13°C° 0 mm 9 mps 754 mmHg 76%
    10:00 +14°C° 0 mm 10 mps 754 mmHg 71%
    11:00 +16°C° 0 mm 10 mps 754 mmHg 65%
    12:00 +17°C° 0 mm 10 mps 753 mmHg 62%
    13:00 +17°C° 0 mm 10 mps 753 mmHg 59%
    14:00 +18°C° 0 mm 10 mps 753 mmHg 56%
    15:00 +17°C° 0 mm 10 mps 754 mmHg 61%
    16:00 +16°C° 0 mm 9 mps 754 mmHg 65%
    17:00 +16°C° 0 mm 9 mps 754 mmHg 70%
    18:00 +15°C° 0.1 mm 9 mps 754 mmHg 73%
    19:00 +15°C° 0.1 mm 9 mps 755 mmHg 76%
    20:00 +13°C° 0.1 mm 9 mps 755 mmHg 78%
    21:00 +14°C° 0.2 mm 7 mps 755 mmHg 80%
    22:00 +14°C° 0.2 mm 6 mps 755 mmHg 81%
    23:00 +14°C° 0.2 mm 5 mps 755 mmHg 83%

    Tomorrow, 17 December, Sunday

    Time Temperature Precipitation Wind Pressure Humidity
    00:00 +14°C° 1.4 mm 5 mps 755 mmHg 84%
    01:00 +14°C° 1.4 mm 5 mps 755 mmHg 85%
    02:00 +13°C° 1.4 mm 5 mps 755 mmHg 86%
    03:00 +13°C° 0.9 mm 6 mps 755 mmHg 87%
    04:00 +13°C° 0.9 mm 6 mps 754 mmHg 87%
    05:00 +12°C° 0.9 mm 7 mps 754 mmHg 87%
    06:00 +11°C° 2.5 mm 6 mps 754 mmHg 87%
    07:00 +10°C° 2.5 mm 6 mps 754 mmHg 88%
    08:00 +10°C° 2.5 mm 6 mps 754 mmHg 88%
    09:00 +10°C° 3.5 mm 6 mps 754 mmHg 88%
    10:00 +9°C° 3.5 mm 6 mps 755 mmHg 89%
    11:00 +9°C° 3.5 mm 6 mps 755 mmHg 90%
    12:00 +8°C° 2.1 mm 6 mps 755 mmHg 88%
    13:00 +8°C° 2.1 mm 6 mps 755 mmHg 87%
    14:00 +7°C° 2.1 mm 6 mps 755 mmHg 86%
    15:00 +7°C° 0.6 mm 5 mps 755 mmHg 86%
    16:00 +7°C° 0.6 mm 5 mps 756 mmHg 85%
    17:00 +6°C° 0.6 mm 5 mps 756 mmHg 84%
    18:00 +6°C° 0 mm 5 mps 757 mmHg 85%
    19:00 +5°C° 0 mm 5 mps 758 mmHg 85%
    20:00 +5°C° 0 mm 4 mps 758 mmHg 86%
    21:00 +5°C° 0 mm 4 mps 759 mmHg 86%
    22:00 +5°C° 0 mm 4 mps 760 mmHg 86%
    23:00 +4°C° 0 mm 4 mps 761 mmHg 87%

    Day after tomorrow, 18 December, Monday

    Time Temperature Precipitation Wind Pressure Humidity
    00:00 +4°C° 0 mm 4 mps 761 mmHg 87%
    01:00 +4°C° 0 mm 4 mps 761 mmHg 87%
    02:00 +3°C° 0 mm 3 mps 762 mmHg 88%
    03:00 +3°C° 0 mm 3 mps 762 mmHg 88%
    04:00 +3°C° 0 mm 3 mps 762 mmHg 88%
    05:00 +2°C° 0 mm 3 mps 762 mmHg 88%
    06:00 +2°C° 0 mm 3 mps 763 mmHg 88%
    07:00 +2°C° 0 mm 3 mps 763 mmHg 87%
    08:00 +2°C° 0 mm 3 mps 763 mmHg 86%
    09:00 +3°C° 0 mm 3 mps 764 mmHg 81%
    10:00 +4°C° 0 mm 3 mps 764 mmHg 76%
    11:00 +4°C° 0 mm 3 mps 764 mmHg 71%
    12:00 +5°C° 0 mm 4 mps 763 mmHg 70%
    13:00 +5°C° 0 mm 4 mps 763 mmHg 69%
    14:00 +6°C° 0 mm 4 mps 763 mmHg 67%
    15:00 +5°C° 0.1 mm 4 mps 763 mmHg 70%
    16:00 +5°C° 0.1 mm 4 mps 763 mmHg 73%
    17:00 +4°C° 0.1 mm 4 mps 763 mmHg 76%
    18:00 +4°C° 0.7 mm 4 mps 763 mmHg 77%
    19:00 +3°C° 0.7 mm 5 mps 763 mmHg 79%
    20:00 +2°C° 0.7 mm 5 mps 763 mmHg 80%
    21:00 +2°C° 0.6 mm 5 mps 764 mmHg 81%
    22:00 +2°C° 0.6 mm 6 mps 764 mmHg 82%
    23:00 +2°C° 0.6 mm 6 mps 764 mmHg 83%

    19 December, Tuesday

    Time Temperature Precipitation Wind Pressure Humidity
    00:00 +1°C° 0.7 mm 6 mps 764 mmHg 84%
    01:00 +1°C° 0.7 mm 6 mps 764 mmHg 85%
    02:00 +1°C° 0.7 mm 6 mps 764 mmHg 86%
    03:00 +1°C° 0.5 mm 6 mps 765 mmHg 86%
    04:00 -1°C° 0.5 mm 6 mps 765 mmHg 86%
    05:00 -1°C° 0.5 mm 7 mps 765 mmHg 87%
    06:00 -1°C° 0.4 mm 7 mps 766 mmHg 87%
    07:00 -1°C° 0.4 mm 7 mps 766 mmHg 87%
    08:00 -2°C° 0.4 mm 7 mps 767 mmHg 87%
    09:00 -1°C° 0.2 mm 7 mps 768 mmHg 86%
    10:00 -1°C° 0.2 mm 6 mps 768 mmHg 85%
    11:00 -1°C° 0.2 mm 6 mps 769 mmHg 85%
    12:00 -1°C° 0.1 mm 6 mps 769 mmHg 83%
    13:00 +1°C° 0.1 mm 6 mps 769 mmHg 82%
    14:00 +1°C° 0.1 mm 6 mps 769 mmHg 81%
    15:00 -1°C° 0 mm 6 mps 769 mmHg 81%
    16:00 -1°C° 0 mm 6 mps 769 mmHg 82%
    17:00 0°C° 0 mm 5 mps 770 mmHg 82%
    18:00 -1°C° 0 mm 5 mps 770 mmHg 82%
    19:00 -1°C° 0 mm 5 mps 770 mmHg 82%
    20:00 -1°C° 0 mm 5 mps 771 mmHg 82%
    21:00 -1°C° 0.1 mm 5 mps 771 mmHg 82%
    22:00 -1°C° 0.1 mm 5 mps 771 mmHg 82%
    23:00 -2°C° 0.1 mm 5 mps 771 mmHg 83%

    20 December, Wednesday

    Time Temperature Precipitation Wind Pressure Humidity
    00:00 -3°C° 0.1 mm 6 mps 771 mmHg 83%
    01:00 -3°C° 0.1 mm 6 mps 771 mmHg 82%
    02:00 -3°C° 0.1 mm 6 mps 771 mmHg 82%
    03:00 -3°C° 0 mm 6 mps 771 mmHg 82%
    04:00 -3°C° 0 mm 6 mps 771 mmHg 81%
    05:00 -3°C° 0 mm 6 mps 771 mmHg 80%
    06:00 -3°C° 0 mm 6 mps 772 mmHg 80%
    07:00 -4°C° 0 mm 5 mps 772 mmHg 80%
    08:00 -4°C° 0 mm 5 mps 772 mmHg 79%
    09:00 -2°C° 0 mm 5 mps 772 mmHg 76%
    10:00 -1°C° 0 mm 5 mps 772 mmHg 72%
    11:00 -2°C° 0 mm 6 mps 772 mmHg 69%
    12:00 -1°C° 0 mm 6 mps 772 mmHg 68%
    13:00 0°C° 0 mm 5 mps 772 mmHg 68%
    14:00 0°C° 0 mm 5 mps 771 mmHg 67%
    15:00 0°C° 0 mm 5 mps 771 mmHg 71%
    16:00 -1°C° 0 mm 5 mps 771 mmHg 74%
    17:00 -1°C° 0 mm 4 mps 771 mmHg 78%
    18:00 -2°C° 0 mm 4 mps 771 mmHg 80%
    19:00 -2°C° 0 mm 4 mps 771 mmHg 82%
    20:00 -1°C° 0 mm 3 mps 771 mmHg 83%
    21:00 -2°C° 0 mm 3 mps 771 mmHg 84%
    22:00 -2°C° 0 mm 3 mps 771 mmHg 84%
    23:00 -2°C° 0 mm 3 mps 771 mmHg 84%

    21 December, Thursday

    Time Temperature Precipitation Wind Pressure Humidity
    00:00 -2°C° 0 mm 3 mps 771 mmHg 84%
    01:00 -2°C° 0 mm 3 mps 771 mmHg 83%
    02:00 -4°C° 0 mm 3 mps 770 mmHg 82%
    03:00 -4°C° 0 mm 3 mps 770 mmHg 82%
    04:00 -4°C° 0 mm 3 mps 770 mmHg 81%
    05:00 -4°C° 0 mm 3 mps 770 mmHg 81%
    06:00 -4°C° 0 mm 3 mps 770 mmHg 81%
    07:00 -4°C° 0 mm 3 mps 770 mmHg 81%
    08:00 -4°C° 0 mm 3 mps 770 mmHg 81%
    09:00 -2°C° 0 mm 3 mps 770 mmHg 75%
    10:00 -1°C° 0 mm 4 mps 770 mmHg 70%
    11:00 0°C° 0 mm 4 mps 770 mmHg 64%
    12:00 +1°C° 0 mm 4 mps 769 mmHg 63%
    13:00 +1°C° 0 mm 4 mps 769 mmHg 62%
    14:00 +3°C° 0 mm 4 mps 768 mmHg 62%
    15:00 +1°C° 0 mm 4 mps 768 mmHg 66%
    16:00 0°C° 0 mm 4 mps 768 mmHg 71%
    17:00 0°C° 0 mm 3 mps 768 mmHg 76%
    18:00 0°C° 0 mm 3 mps 768 mmHg 78%
    19:00 0°C° 0 mm 3 mps 768 mmHg 79%
    20:00 +1°C° 0 mm 3 mps 768 mmHg 80%
    21:00 0°C° 0 mm 4 mps 767 mmHg 82%
    22:00 0°C° 0 mm 4 mps 767 mmHg 84%
    23:00 +1°C° 0 mm 4 mps 767 mmHg 85%
    Show more